EHI
0 0 0 0 0 0 0 0 0 0 0 0 0 0 0 0 0 0 0 0 0 0 0 0 0 0 0 0 0 0 0 0 0 0 0 0 0 0 0 0 0 0 0
0 0 0 0 0 0 0 0 0 0 0 0 0 0 0 0 0 0 0 0 0 0 0 0 0 0 0 0 0 0 0 0 0 0 0 0 0 0 0 0 0 0 0
0 0 0 0 0 0 0 0 0 0 0 0 0 0 0 0 0 0 0 0 0 0 0 0 0 0 0 0 0 0 0 0 0 0 0 0 0 0 0 0 0 0 0
0 0 0 0 0 0 0 0 0 0 0 0 0 0 0 0 0 0 0 0 0 0 0 0 0 0 0 0 0 0 0 0 0 0 0 0 0 0 0 0 0 0 0
0 0 0 0 0 0 0 0 0 0 0 0 0 0 0 0 0 0 0 0 0 0 0 0 0 0 0 0 0 0 0 0 0 0 0 0 0 0 0 0 0 0 0
0 0 0 0 0 0 0 0 0 0 0 0 0 0 0 0 0 0 0 0 0 0 0 0 0 0 0 0 0 0 0 0 0 0 0 0 0 0 0 0 0 0 0
0 0 0 0 0 0 0 0 0 0 0 0 0 0 0 0 0 0 0 0 0 0 0 0 0 0 0 0 0 0 0 0 0 0 0 0 0 0 0 0 0 0 0
0 0 0 0 0 0 0 0 0 0 0 0 0 0 0 0 0 0 0 0 0 0 0 0 0 0 0 0 0 0 0 0 0 0 0 0 0 0 0 0 0 0 0
0 0 0 0 0 0 0 0 0 0 0 0 0 0 0 0 0 0 0 0 0 0 0 0 0 0 0 0 0 0 0 0 0 0 0 0 0 0 0 0 0 0 0
0 0 0 0 0 0 0 0 0 0 0 0 0 0 0 0 0 0 0 0 0 0 0 0 0 0 0 0 0 0 0 0 0 0 0 0 0 0 0 0 0 0 0
0 0 0 0 0 0 0 0 0 0 0 0 0 0 0 0 0 0 0 0 0 0 0 0 0 0 0 0 0 0 0 0 0 0 0 0 0 0 0 0 0 0 0
0 0 0 0 0 0 0 0 0 0 0 0 0 0 0 0 0 0 0 0 0 0 0 0 0 0 0 0 0 0 0 0 0 0 0 0 0 0 0 0 0 0 0
0 0 0 0 0 0 0 0 0 0 0 0 0 0 0 0 0 0 0 0 0 0 0 0 0 0 0 0 0 0 0 0 0 0 0 0 0 0 0 0 0 0 0
0 0 0 0 0 0 0 0 0 0 0 0 0 0 0 0 0 0 0 0 0 0 0 0 0 0 0 0 0 0 0 0 0 0 0 0 0 0 0 0 0 0 0
0 0 0 0 0 0 0 0 0 0 0 0 0 0 0 0 0 0 0 0 0 0 0 0 0 0 0 0 0 0 0 0 0 0 0 0 0 0 0 0 0 0 0
0 0 0 0 0 0 0 0 0 0 0 0 0 0 0 0 0 0 0 0 0 0 0 0 0 0 0 0 0 0 0 0 0 0 0 0 0 0 0 0 0 0 0
0 0 0 0 0 0 0 0 0 0 0 0 0 0 0 0 0 0 0 0 0 0 0 0 0 0 0 0 0 0 0 0 0 0 0 0 0 0 0 0 0 0 0
0 0 0 0 0 0 0 0 0 0 0 0 0 0 0 0 0 0 0 0 0 0 0 0 0 0 0 0 0 0 0 0 0 0 0 0 0 0 0 0 0 0 0
0 0 0 0 0 0 0 0 0 0 0 0 0 0 0 0 0 0 0 0 0 0 0 0 0 0 0 0 0 0 0 0 0 0 0 0 0 0 0 0 0 0 0
0 0 0 0 0 0 0 0 0 0 0 0 0 0 0 0 0 0 0 0 0 0 0 0 0 0 0 0 0 0 0 0 0 0 0 0 0 0 0 0 0 0 0
0 0 0 0 0 0 0 0 0 0 0 0 0 0 0 0 0 0 0 0 0 0 0 0 0 0 0 0 0 0 0 0 0 0 0 0 0 0 0 0 0 0 0
0 0 0 0 0 0 0 0 0 0 0 0 0 0 0 0 0 0 0 0 0 0 0 0 0 0 0 0 0 0 0 0 0 0 0 0 0 0 0 0 0 0 0
0 0 0 0 0 0 0 0 0 0 0 0 0 0 0 0 0 0 0 0 0 0 0 0 0 0 0 0 0 0 0 0 0 0 0 0 0 0 0 0 0 0 0
0 0 0 0 0 0 0 0 0 0 0 0 0 0 0 0 0 0 0 0 0 0 0 0 0 0 0 0 0 0 0 0 0 0 0 0 0 0 0 0 0 0 0
0 0 0 0 0 0 0 0 0 0 0 0 0 0 0 0 0 0 0 0 0 0 0 0 0 0 0 0 0 0 0 0 0 0 0 0 0 0 0 0 0 0 0
0 0 0 0 0 0 0 0 0 0 0 0 0 0 0 0 0 0 0 0 0 0 0 0 0 0 0 0 0 0 0 0 0 0 0 0 0 0 0 0 0 0 0
Wind_Speed
3 3 4 4 4 5 5 6 7 7 8 8 9 10 10 10 10 10 11 11 12 12 11 12 13 11 9 9 8 9 9 9 11 11 9 10 12 11 9 9 9 10 8
3 3 4 4 4 5 6 7 7 8 8 9 9 10 10 10 10 11 12 12 12 12 12 12 13 10 12 10 9 10 9 9 10 13 10 9 11 11 10 10 8 7 7
2 3 4 4 5 6 6 7 7 8 8 9 9 10 10 10 11 11 12 12 12 13 13 13 13 12 12 10 10 9 8 8 9 10 10 9 8 8 8 8 8 7 7
2 3 4 5 5 6 7 7 7 8 9 9 9 10 10 11 11 11 12 12 13 12 12 12 13 12 12 11 9 10 9 9 9 8 9 8 8 8 6 6 6 5 5
3 4 5 5 5 6 6 7 7 8 8 9 9 10 10 9 9 11 11 12 12 12 12 12 12 12 13 11 9 9 9 8 7 7 8 7 7 6 5 5 5 5 5
4 4 5 5 5 6 6 7 7 8 8 8 9 10 10 8 11 14 13 11 11 12 11 11 10 11 11 13 15 14 13 10 9 8 7 8 8 7 5 5 5 5 4
4 5 5 5 5 6 6 7 7 8 8 9 9 10 10 11 12 14 14 12 11 10 10 9 8 8 10 9 10 12 12 13 13 11 9 9 8 7 5 6 5 5 5
4 5 5 5 6 7 7 7 7 7 8 9 9 10 10 10 13 14 14 11 10 10 10 10 9 9 8 8 7 8 8 8 9 8 8 8 7 6 5 5 4 3 4
4 5 6 6 7 7 8 8 8 8 8 8 9 9 10 10 12 13 13 8 8 9 9 9 9 9 9 9 7 7 7 7 5 5 6 6 6 6 5 2 2 2 2
5 6 6 7 7 8 9 9 8 8 8 8 9 9 10 10 11 13 12 6 7 7 7 7 8 8 8 8 7 6 7 6 4 4 3 3 3 3 3 3 3 2 1
6 6 6 7 7 8 8 8 8 8 8 8 9 9 9 9 10 11 11 6 6 6 6 6 5 6 7 8 7 6 6 5 4 3 2 2 1 1 2 2 1 1 2
6 6 7 7 7 6 8 8 8 7 8 8 8 9 7 7 8 9 11 9 8 7 6 5 5 5 6 6 5 4 4 3 2 1 1 1 1 1 1 2 2 2 2
6 7 7 7 7 6 7 7 7 6 6 6 6 7 7 6 6 9 10 10 9 6 5 6 7 7 6 4 3 2 2 2 1 1 1 0 1 1 1 1 2 3 4
7 7 6 6 6 6 5 5 6 6 6 6 6 7 7 6 6 5 5 5 6 5 4 4 5 5 3 3 2 1 1 1 1 1 0 0 1 1 1 1 1 2 3
7 6 6 6 6 6 6 6 7 6 6 7 6 6 7 7 7 8 7 5 5 4 4 3 2 2 2 1 1 1 1 0 1 1 1 1 1 1 1 1 1 2 3
6 6 5 5 5 5 6 6 7 8 10 10 10 9 7 9 11 10 9 9 9 7 4 2 2 2 1 1 1 1 1 0 0 1 1 1 1 1 1 2 2 3 4
7 6 5 5 5 5 6 6 7 7 8 8 9 10 9 10 10 9 9 8 7 5 3 2 2 2 1 1 1 0 1 1 0 1 1 1 1 2 2 2 2 3 4
7 7 6 5 5 5 6 6 6 6 7 6 6 8 9 9 9 9 8 5 3 2 1 1 1 1 1 1 1 0 0 0 1 1 1 1 1 2 2 2 3 3 4
6 5 5 5 5 5 5 5 5 6 6 6 6 6 8 8 8 7 6 3 2 2 2 1 1 1 1 1 0 0 0 0 1 1 1 1 2 2 2 3 3 5 4
5 7 7 6 5 5 5 5 5 5 5 5 5 5 5 5 4 4 4 3 2 2 2 1 1 1 0 0 0 0 0 0 1 1 1 2 2 2 3 4 4 4 3
5 6 7 6 5 5 4 4 4 4 4 4 4 5 7 4 4 4 4 3 3 2 2 1 1 1 0 0 0 0 0 0 1 1 1 2 2 2 3 3 4 4 4
5 5 4 4 4 4 4 4 4 4 4 5 4 5 7 4 3 3 3 3 3 3 2 1 1 1 1 1 0 0 1 1 1 1 2 2 2 3 3 3 4 4 4
5 5 4 4 4 5 5 4 4 4 4 4 4 4 4 4 3 3 3 3 3 3 2 1 1 1 1 1 1 1 1 1 1 1 2 2 3 3 3 4 4 4 4
4 4 4 4 4 4 4 4 4 4 4 4 3 3 3 3 3 4 3 3 3 3 2 2 1 1 1 1 1 1 0 0 1 2 3 3 4 4 4 4 4 5 5
4 3 3 3 3 3 4 4 4 4 3 3 3 3 3 3 3 3 3 3 3 3 3 2 1 1 2 2 1 1 2 2 3 3 3 3 4 4 5 5 4 5 4
3 3 3 3 3 3 3 4 4 4 3 3 3 3 3 3 3 3 3 3 3 3 3 2 2 2 2 2 2 2 3 4 5 4 3 4 5 5 5 5 5 5 5
Wind_Direction
233 246 256 262 267 268 270 274 278 279 277 276 277 277 276 277 277 274 273 274 272 272 269 266 264 263 261 258 255 255 256 258 270 283 285 289 288 288 291 289 287 286 283
248 258 265 267 270 272 277 282 283 283 282 279 278 277 278 279 279 277 276 273 270 270 269 267 265 263 259 257 254 255 258 258 266 278 286 289 287 289 292 293 293 292 290
266 266 271 275 277 279 284 288 288 288 286 282 280 279 280 280 279 276 275 273 270 269 268 266 265 261 259 256 255 257 259 261 263 271 282 287 289 290 293 292 295 299 304
291 279 277 280 283 286 288 290 291 291 288 287 283 281 281 280 278 276 275 275 273 271 268 266 264 259 258 258 256 257 260 262 263 268 277 284 288 291 291 293 304 310 314
300 292 288 288 289 290 290 292 293 291 289 288 287 285 283 281 277 281 282 280 278 276 273 268 265 262 258 256 256 257 256 257 262 268 273 279 284 288 289 297 301 312 317
299 297 302 299 295 294 295 295 295 295 294 292 289 289 288 284 286 288 288 283 281 278 277 274 270 263 257 255 257 257 255 255 261 265 270 270 277 282 288 293 299 305 313
306 306 306 306 304 303 301 298 295 297 297 295 294 293 290 291 293 293 293 289 282 280 278 276 273 268 261 258 259 259 257 254 252 258 265 266 271 275 280 286 290 301 304
309 311 312 311 307 306 303 300 300 299 296 295 294 292 292 294 298 300 300 290 283 281 279 275 272 273 266 263 265 266 267 266 260 255 260 267 269 274 270 272 281 303 317
312 312 311 309 306 305 302 300 301 298 297 295 294 294 295 296 298 300 299 291 283 284 282 278 273 272 269 265 264 266 272 277 276 258 261 268 280 279 274 267 261 271 302
308 307 305 304 301 300 299 300 299 295 295 297 296 295 295 296 299 300 299 289 287 287 284 281 273 272 276 268 262 261 266 275 284 293 284 276 275 286 285 262 248 240 267
307 304 303 302 299 298 298 299 300 298 296 296 296 296 296 297 301 301 299 291 288 292 291 289 287 284 278 274 272 265 263 275 279 281 296 311 320 328 331 330 321 264 260
308 303 303 302 302 300 300 301 300 298 295 296 297 299 297 298 302 306 304 299 296 292 291 293 299 305 300 294 285 275 274 271 263 270 285 313 348 351 359 11 31 34 11
308 305 306 306 304 303 301 301 301 296 293 295 295 297 300 301 301 305 307 305 301 293 293 303 307 307 307 304 303 290 274 253 227 220 231 282 344 4 29 52 57 63 58
306 308 308 306 306 306 302 298 298 295 294 294 296 297 301 302 301 301 301 305 301 295 294 302 310 314 306 303 313 315 280 228 197 187 168 83 64 57 55 69 80 83 75
305 306 306 302 301 301 299 297 295 289 291 296 295 295 299 301 306 308 301 301 302 299 303 302 304 309 314 324 338 351 3 145 137 134 117 99 79 73 60 63 76 85 87
302 303 302 301 301 299 301 303 298 292 302 300 301 301 299 302 307 306 305 305 305 299 297 291 303 313 320 336 359 17 17 37 102 117 132 137 130 107 89 79 83 99 99
297 298 298 297 297 298 299 301 307 310 308 306 310 311 311 314 316 314 312 313 310 303 295 292 305 315 326 338 343 9 2 346 64 119 125 121 113 109 111 108 102 104 101
297 294 293 293 293 293 294 297 299 305 310 313 319 322 322 324 326 323 318 317 319 319 302 300 308 318 325 323 337 10 30 25 88 113 122 118 114 117 117 114 112 110 106
298 296 295 294 292 292 293 295 297 299 303 308 315 322 330 329 331 336 335 327 317 313 304 299 306 317 340 347 351 47 94 89 114 125 120 110 108 114 116 114 113 114 109
298 301 302 297 296 297 297 297 299 301 305 310 315 320 327 330 334 340 345 337 325 318 317 315 318 325 328 356 7 87 96 98 107 115 114 110 106 107 115 118 122 122 110
300 302 304 298 295 296 298 299 301 302 304 309 314 323 329 325 326 330 334 334 326 320 318 323 331 336 339 326 290 137 114 102 107 108 114 112 110 106 108 114 117 114 110
296 297 299 298 298 301 304 304 305 305 308 311 316 324 333 329 326 327 328 328 328 323 317 311 313 321 311 279 238 196 164 147 137 125 114 114 114 111 110 111 113 114 114
295 299 300 301 301 306 306 306 307 306 308 312 315 321 326 329 328 327 327 326 324 322 320 318 313 330 347 335 310 245 190 175 180 154 133 123 117 117 118 118 119 118 114
298 299 299 300 303 304 305 307 309 309 310 312 317 322 324 327 329 328 326 324 325 327 327 327 328 342 349 346 350 347 24 109 123 128 132 129 123 121 119 117 115 114 113
301 300 299 298 299 302 305 308 311 312 313 316 319 321 323 325 329 331 329 328 330 335 338 333 338 360 19 11 17 56 85 89 98 111 116 117 118 117 117 115 115 113 109
304 303 299 297 297 299 302 304 307 310 312 316 317 318 320 323 326 330 334 336 336 338 338 341 2 14 20 35 60 82 90 100 100 105 114 118 119 120 119 116 118 116 113